Regional Weather Roundup
Issued by NWS

Home | Current Version | Previous Version | Graphics & Text | Print | Product List | Glossary On
Versions: 1 2 3 4 5 6 7 8 9 10 11 12 13 14 15 16 17 18 19 20 21 22 23 24 25 26 27 28 29 30 31 32 33 34 35 36 37 38 39 40 41 42 43 44 45 46 47 48 49 50
000
ASUS43 KDTX 192301
RWRMI
MICHIGAN HOURLY REGIONAL WEATHER ROUNDUP
NATIONAL WEATHER SERVICE DETROIT/PONTIAC MI
700 PM EDT TUE AUG 19 2014

NOTE: "FAIR" INDICATES FEW OR NO CLOUDS BELOW 12,000 FEET WITH NO
SIGNIFICANT WEATHER AND/OR OBSTRUCTION TO VISIBILITY.

MIZ047>049-052>055-059>063-066>070-074>076-081>083-200000-
SOUTHEAST LOWER MICHIGAN

CITY           SKY/WX    TMP DP  RH WIND       PRES   REMARKS
ADRIAN         CLOUDY    66  64  93 SE5       29.80
ALMA           CLOUDY    71  68  90 SW8       29.73S
ANN ARBOR      CLOUDY    66  63  90 S8        29.78F
BAD AXE        CLOUDY    72  69  91 S8        29.74S
CARO           CLOUDY    67  65  96 S7        29.73F
DETROIT CITY   TSTM      70  65  84 W5        29.81R
DETROIT        TSTM      67  65  93 SW5       29.81F
FLINT          LGT RAIN  67  64  90 S8        29.75F
GROSSE ILE     LGT RAIN  68  64  88 W8        29.80F
HILLSDALE      CLOUDY    68  68 100 S5        29.79F
HOWELL         LGT RAIN  65  64  95 S3        29.76F

CITY           SKY/WX    TMP DP  RH WIND       PRES   REMARKS
JACKSON        CLOUDY    66  64  93 S8        29.77F
LAMBERTVILLE   RAIN      68  63  83 CALM      29.83F
LANSING        CLOUDY    66  63  90 S8        29.75S
LAPEER         LGT RAIN  65  64  94 SE5       29.78R
MASON          CLOUDY    64  63  94 S6        29.76R
MONROE         RAIN      66  64  94 W6        29.81F
MT. CLEMENS    TSTM      67  65  93 W6        29.80R
PONTIAC        TSTM      67  64  90 SW6       29.78F
PORT HOPE        N/A     72  66  81 SE6       29.71F
PORT HURON     HVY RAIN  68  64  88 SW10G20   29.81R
TRI CITIES     CLOUDY    71  66  84 S8        29.73F
TROY           RAIN      68  65  90 SW6       29.82F
SAGINAW HB     CLOUDY    70  70 100 S9        29.73S
$$
MIZ043>046-050>051-056>058-064>065-071>073-077>080-200000-
SOUTHWEST LOWER MICHIGAN

CITY           SKY/WX    TMP DP  RH WIND       PRES   REMARKS
BATTLE CREEK   CLOUDY    70  65  84 S8        29.76F
BENTON HARBOR  MOSUNNY   78  67  68 S7        29.73S
BIG RAPIDS     PTSUNNY   74  69  86 SW6       29.71R
COLDWATER      CLOUDY    72  68  89 S3        29.77F
FREMONT        FAIR      75  69  81 SW7       29.71S HAZE
HOLLAND        MOSUNNY   76  70  82 W9        29.74R
GRAND RAPIDS   PTSUNNY   72  70  93 SW12      29.73S
IONIA          FAIR      71  65  81 SW9       29.72F
KALAMAZOO      PTSUNNY   73  67  81 S12       29.75F
LUDINGTON      SUNNY     74  68  81 SW6       29.71R
MARSHALL       CLOUDY    68  65  90 S6        29.76S
MOUNT PLEASANT CLOUDY    74  69  83 S5        29.71S
MUSKEGON       LGT RAIN  71  67  87 S5        29.71F
SOUTH HAVEN    MOSUNNY   78  71  79 SW7       29.73S
$$
MIZ016>042-200000-
NORTHERN LOWER MICHIGAN

CITY           SKY/WX    TMP DP  RH WIND       PRES   REMARKS
ALPENA         CLOUDY    75  65  70 S12       29.70R
BEAVER ISLAND  CLOUDY    70  64  82 CALM      29.70R
BELLAIRE       PTSUNNY   72  65  78 W3        29.68R
CADILLAC       CLOUDY    69  67  93 S5        29.71S
CHARLEVOIX     CLOUDY    67  65  94 N3        29.72R
FRANKFORT      SUNNY     73  64  75 S6        29.68S
GAYLORD        PTSUNNY   73  65  75 SW12      29.71R
GRAYLING       PTSUNNY   71  68  90 S3        29.72S
HARBOR SPRINGS PTSUNNY   69  64  85 S5        29.69R
HOUGHTON LAKE  CLOUDY    70  67  90 S6        29.73S
MANISTEE       SUNNY     73  63  68 W8        29.71R
OSCODA         CLOUDY    70  68  93 S5        29.71S
PELLSTON       CLOUDY    69  64  84 N8        29.70R
ROGERS CITY    MOSUNNY   73  68  83 MISG      29.70R
TRAVERSE CITY  PTSUNNY   74  64  71 SW6       29.67R
$$
MIZ007>008-015-200000-
EASTERN UPPER MICHIGAN

CITY           SKY/WX    TMP DP  RH WIND       PRES   REMARKS
KINROSS        CLOUDY    63  63 100 E12       29.72S
MACKINAC ISLAN CLOUDY    58  58 100 E12       29.70S FOG
NEWBERRY       CLOUDY    65  63  91 CALM      29.70R
S. S. MARIE    CLOUDY    61  59  93 E7        29.73R
$$
MIZ004>006-011>014-085-200000-
CENTRAL UPPER MICHIGAN

CITY           SKY/WX    TMP DP  RH WIND       PRES   REMARKS
MANISTIQUE     FOG       63  62  97 S3        29.68S VSB 1/2
ESCANABA       CLOUDY    66  63  88 W8G17     29.68R THUNDER
MENOMINEE      PTSUNNY   72  64  78 SW6       29.64F
SAWYER-GWINN   LGT RAIN  64  63  94 N8        29.70R
$$
MIZ001>003-009>011-084-200000-
WESTERN UPPER MICHIGAN

CITY           SKY/WX    TMP DP  RH WIND       PRES   REMARKS
IRON MOUNTAIN  PTSUNNY   70  61  73 N16       29.69R
HOUGHTON       CLOUDY    53  51  93 NW10      29.72R FOG
COPPER HARBOR    N/A     52  51  97 CALM      29.72R
IRONWOOD       CLOUDY    61  59  94 N5        29.74R
$$

ABBREVIATIONS USED IN REMARKS
   TC - TEMPERATURE IN CELSIUS
  WCI - WIND CHILL INDEX
   HX - HEAT INDEX
  VSB - VISIBILITY




USA.gov is the U.S. government's official web portal to all federal, state and local government web resources and services.